| time (UTC) | temp F | wind direction | speed MPH | gust MPH | rain 1hr in | rain 24hr in | rain mn in | humidity % | barometer mb |
| 20260510104554 | 48 | 13 | 0.0 | 0.0 | 0.00 | 0.00 | 0.00 | 66 | 1015.5 |
| 20260510103053 | 49 | 13 | 0.0 | 0.0 | 0.00 | 0.00 | 0.00 | 65 | 1015.4 |
| 20260510101556 | 49 | 13 | 0.0 | 0.0 | 0.00 | 0.00 | 0.00 | 63 | 1015.4 |
| 20260510100049 | 50 | 13 | 0.0 | 0.0 | 0.00 | 0.00 | 0.00 | 63 | 1015.4 |
| 20260510094550 | 50 | 13 | 0.0 | 0.0 | 0.00 | 0.00 | 0.00 | 62 | 1015.3 |
| 20260510093047 | 50 | 13 | 0.0 | 0.0 | 0.00 | 0.00 | 0.00 | 61 | 1015.3 |
| 20260510091544 | 51 | 13 | 0.0 | 0.0 | 0.00 | 0.00 | 0.00 | 60 | 1015.4 |
| 20260510090042 | 51 | 13 | 0.0 | 0.0 | 0.00 | 0.00 | 0.00 | 58 | 1015.3 |
| 20260510084530 | 52 | 13 | 0.0 | 0.0 | 0.00 | 0.00 | 0.00 | 56 | 1015.3 |
| 20260510083024 | 53 | 13 | 0.0 | 0.0 | 0.00 | 0.00 | 0.00 | 53 | 1015.3 |
| 20260510081522 | 53 | 13 | 0.0 | 0.0 | 0.00 | 0.00 | 0.00 | 54 | 1015.4 |
| 20260510080020 | 54 | 13 | 0.0 | 0.0 | 0.00 | 0.00 | 0.00 | 53 | 1015.5 |
| 20260510074519 | 54 | 13 | 0.0 | 0.0 | 0.00 | 0.00 | 0.00 | 52 | 1015.4 |
| 20260510073022 | 54 | 13 | 0.0 | 0.0 | 0.00 | 0.00 | 0.00 | 49 | 1015.3 |
| 20260510071515 | 55 | 13 | 0.0 | 0.0 | 0.00 | 0.00 | 0.00 | 50 | 1015.3 |
| 20260510070014 | 55 | 13 | 0.0 | 0.0 | 0.00 | 0.00 | 0.00 | 50 | 1015.3 |
| 20260510064633 | 56 | 13 | 0.0 | 0.0 | 0.00 | 0.00 | 0.00 | 49 | 1015.3 |
| 20260510063051 | 56 | 13 | 0.0 | 0.0 | 0.00 | 0.00 | 0.00 | 48 | 1015.3 |
| 20260510061536 | 57 | 13 | 0.0 | 0.0 | 0.00 | 0.00 | 0.00 | 45 | 1015.3 |
| 20260510060037 | 58 | 13 | 0.0 | 0.0 | 0.00 | 0.00 | 0.00 | 43 | 1015.2 |
| 20260510054541 | 58 | 13 | 0.0 | 0.0 | 0.00 | 0.00 | 0.00 | 42 | 1015.3 |
| 20260510053042 | 59 | 13 | 0.0 | 0.0 | 0.00 | 0.00 | 0.00 | 45 | 1015.3 |
| 20260510051545 | 59 | 13 | 0.0 | 0.0 | 0.00 | 0.00 | 0.00 | 44 | 1015.2 |
| 20260510050027 | 60 | 13 | 0.0 | 0.0 | 0.00 | 0.00 | 0.00 | 42 | 1015.0 |
| 20260510044524 | 61 | 13 | 0.0 | 0.0 | 0.00 | 0.00 | 0.00 | 41 | 1015.1 |
| 20260510043022 | 62 | 13 | 0.0 | 0.0 | 0.00 | 0.00 | 0.00 | 41 | 1015.1 |
| 20260510041503 | 63 | 13 | 0.0 | 0.0 | 0.00 | 0.00 | 0.00 | 40 | 1015.0 |
| 20260510040100 | 63 | 13 | 0.0 | 0.0 | 0.00 | 0.00 | 0.00 | 37 | 1014.9 |
| 20260510034601 | 65 | 13 | 0.0 | 0.0 | 0.00 | 0.00 | 0.00 | 34 | 1014.7 |
| 20260510033045 | 67 | 13 | 0.0 | 0.0 | 0.00 | 0.00 | 0.00 | 30 | 1014.6 |
| 20260510031534 | 68 | 13 | 0.0 | 0.0 | 0.00 | 0.00 | 0.00 | 29 | 1014.6 |
| 20260510030030 | 70 | 13 | 0.0 | 0.0 | 0.00 | 0.00 | 0.00 | 27 | 1014.5 |
| 20260510024527 | 71 | 13 | 0.0 | 0.0 | 0.00 | 0.00 | 0.00 | 27 | 1014.5 |
| 20260510023024 | 72 | 13 | 0.0 | 0.0 | 0.00 | 0.00 | 0.00 | 24 | 1014.5 |
| 20260510021529 | 73 | 13 | 2.0 | 0.0 | 0.00 | 0.00 | 0.00 | 24 | 1014.4 |
| 20260510020027 | 73 | 331 | 3.0 | 0.0 | 0.00 | 0.00 | 0.00 | 23 | 1014.5 |
| 20260510014518 | 74 | 336 | 3.0 | 0.0 | 0.00 | 0.00 | 0.00 | 22 | 1014.6 |
| 20260510013019 | 74 | 9 | 3.0 | 0.0 | 0.00 | 0.00 | 0.00 | 22 | 1014.5 |
| 20260510011519 | 75 | 333 | 4.0 | 0.0 | 0.00 | 0.00 | 0.00 | 22 | 1014.6 |
| 20260510010019 | 75 | 26 | 0.0 | 0.0 | 0.00 | 0.00 | 0.00 | 21 | 1014.5 |
| 20260510004519 | 75 | 335 | 3.0 | 0.0 | 0.00 | 0.00 | 0.00 | 22 | 1014.6 |
| 20260510003017 | 75 | 355 | 4.0 | 0.0 | 0.00 | 0.00 | 0.00 | 23 | 1014.7 |
| 20260510001554 | 76 | 34 | 4.0 | 0.0 | 0.00 | 0.00 | 0.00 | 21 | 1014.8 |
| 20260510000116 | 76 | 327 | 3.0 | 0.0 | 0.00 | 0.00 | 0.00 | 23 | 1014.7 |
| 20260509234534 | 76 | 324 | 3.0 | 0.0 | 0.00 | 0.00 | 0.00 | 24 | 1014.8 |
| 20260509233034 | 76 | 332 | 4.0 | 0.0 | 0.00 | 0.00 | 0.00 | 24 | 1014.9 |
| 20260509231519 | 76 | 14 | 1.0 | 0.0 | 0.00 | 0.00 | 0.00 | 21 | 1015.1 |
| 20260509230017 | 76 | 294 | 3.0 | 0.0 | 0.00 | 0.00 | 0.00 | 22 | 1015.2 |
| 20260509224513 | 75 | 331 | 4.0 | 0.0 | 0.00 | 0.00 | 0.00 | 23 | 1015.4 |
| 20260509223011 | 75 | 11 | 4.0 | 0.0 | 0.00 | 0.00 | 0.00 | 24 | 1015.6 |
| 20260509221509 | 75 | 327 | 4.0 | 0.0 | 0.00 | 0.00 | 0.00 | 23 | 1015.9 |
| 20260509220007 | 74 | 290 | 4.0 | 0.0 | 0.00 | 0.00 | 0.00 | 24 | 1016.1 |
| 20260509214505 | 74 | 263 | 5.0 | 0.0 | 0.00 | 0.00 | 0.00 | 23 | 1016.3 |
| 20260509213003 | 74 | 325 | 2.0 | 0.0 | 0.00 | 0.00 | 0.00 | 26 | 1016.4 |
| 20260509211547 | 74 | 327 | 2.0 | 0.0 | 0.00 | 0.00 | 0.00 | 23 | 1016.5 |
| 20260509210047 | 73 | 342 | 4.0 | 0.0 | 0.00 | 0.00 | 0.00 | 25 | 1016.8 |
| 20260509204525 | 73 | 280 | 0.0 | 0.0 | 0.00 | 0.00 | 0.00 | 25 | 1016.8 |
| 20260509203033 | 74 | 269 | 0.0 | 0.0 | 0.00 | 0.00 | 0.00 | 30 | 1017.0 |
| 20260509201508 | 72 | 338 | 0.0 | 0.0 | 0.00 | 0.00 | 0.00 | 31 | 1017.1 |
| 20260509200009 | 72 | 333 | 0.0 | 0.0 | 0.00 | 0.00 | 0.00 | 32 | 1017.2 |
| 20260509194507 | 71 | 328 | 0.0 | 0.0 | 0.00 | 0.00 | 0.00 | 37 | 1017.3 |
| 20260509193008 | 70 | 325 | 0.0 | 0.0 | 0.00 | 0.00 | 0.00 | 36 | 1017.6 |
| 20260509191507 | 69 | 328 | 0.0 | 0.0 | 0.00 | 0.00 | 0.00 | 38 | 1017.9 |
| 20260509190007 | 69 | 321 | 2.0 | 0.0 | 0.00 | 0.00 | 0.00 | 37 | 1018.1 |
| 20260509184508 | 69 | 318 | 2.0 | 0.0 | 0.00 | 0.00 | 0.00 | 37 | 1018.1 |
| 20260509183006 | 67 | 344 | 4.0 | 0.0 | 0.00 | 0.00 | 0.00 | 36 | 1018.3 |
| 20260509181550 | 67 | 261 | 5.0 | 0.0 | 0.00 | 0.00 | 0.00 | 38 | 1018.3 |
| 20260509180047 | 67 | 289 | 4.0 | 0.0 | 0.00 | 0.00 | 0.00 | 36 | 1018.3 |
| 20260509174545 | 66 | 330 | 4.0 | 0.0 | 0.00 | 0.00 | 0.00 | 40 | 1018.4 |
| 20260509173036 | 64 | 348 | 4.0 | 0.0 | 0.00 | 0.00 | 0.00 | 42 | 1018.5 |
| 20260509171541 | 64 | 317 | 4.0 | 0.0 | 0.00 | 0.00 | 0.00 | 44 | 1018.5 |
| 20260509170034 | 63 | 304 | 4.0 | 0.0 | 0.00 | 0.00 | 0.00 | 45 | 1018.5 |
| 20260509164535 | 62 | 325 | 4.0 | 0.0 | 0.00 | 0.00 | 0.00 | 48 | 1018.5 |
| 20260509163043 | 61 | 320 | 3.0 | 0.0 | 0.00 | 0.00 | 0.00 | 49 | 1018.6 |
| 20260509161541 | 60 | 321 | 1.0 | 0.0 | 0.00 | 0.00 | 0.00 | 49 | 1018.5 |
| 20260509160032 | 59 | 333 | 0.0 | 0.0 | 0.00 | 0.00 | 0.00 | 55 | 1018.4 |
| 20260509154531 | 57 | 334 | 0.0 | 0.0 | 0.00 | 0.00 | 0.00 | 55 | 1018.5 |
| 20260509153025 | 57 | 321 | 0.0 | 0.0 | 0.00 | 0.00 | 0.00 | 55 | 1018.4 |
| 20260509151514 | 56 | 319 | 0.0 | 0.0 | 0.00 | 0.00 | 0.00 | 57 | 1018.4 |
| 20260509150104 | 55 | 302 | 0.0 | 0.0 | 0.00 | 0.00 | 0.00 | 57 | 1018.4 |
| 20260509150004 | 55 | 302 | 0.0 | 0.0 | 0.00 | 0.00 | 0.00 | 57 | 1018.4 |
| 20260509144600 | 54 | 302 | 2.0 | 0.0 | 0.00 | 0.00 | 0.00 | 58 | 1018.4 |
| 20260509143102 | 53 | 302 | 1.0 | 0.0 | 0.00 | 0.00 | 0.00 | 61 | 1018.3 |
| 20260509141601 | 51 | 301 | 0.0 | 0.0 | 0.00 | 0.00 | 0.00 | 65 | 1018.3 |
| 20260509140105 | 49 | 301 | 0.0 | 0.0 | 0.00 | 0.00 | 0.00 | 66 | 1018.2 |
| 20260509134556 | 48 | 301 | 0.0 | 0.0 | 0.00 | 0.00 | 0.00 | 69 | 1018.1 |
| 20260509133054 | 47 | 301 | 0.0 | 0.0 | 0.00 | 0.00 | 0.00 | 70 | 1018.0 |
| 20260509131554 | 47 | 301 | 0.0 | 0.0 | 0.00 | 0.00 | 0.00 | 69 | 1017.8 |
| 20260509130032 | 47 | 301 | 0.0 | 0.0 | 0.00 | 0.00 | 0.00 | 67 | 1017.5 |
| 20260509124529 | 48 | 301 | 0.0 | 0.0 | 0.00 | 0.00 | 0.00 | 65 | 1017.3 |
| 20260509123010 | 49 | 301 | 0.0 | 0.0 | 0.00 | 0.00 | 0.00 | 62 | 1017.2 |
| 20260509121512 | 49 | 301 | 0.0 | 0.0 | 0.00 | 0.00 | 0.00 | 61 | 1017.1 |
| 20260509120049 | 50 | 301 | 0.0 | 0.0 | 0.00 | 0.00 | 0.00 | 60 | 1017.0 |
| 20260509114546 | 50 | 301 | 0.0 | 0.0 | 0.00 | 0.00 | 0.00 | 59 | 1016.8 |
| 20260509113026 | 51 | 301 | 0.0 | 0.0 | 0.00 | 0.00 | 0.00 | 57 | 1016.8 |
| 20260509111523 | 52 | 301 | 0.0 | 0.0 | 0.00 | 0.00 | 0.00 | 56 | 1016.8 |
| 20260509110009 | 52 | 301 | 0.0 | 0.0 | 0.00 | 0.00 | 0.00 | 54 | 1016.8 |